Overview Statistics Trail Chart Weather Telemetry Raw packets
 

This is the latest recevied weather packets stored in our database for station/object W5MAI. If no packets are shown the sender has not sent any weather packets the latest 10 day(s).

<< 10 11 12 13 14 15 16 >>
Time Temp. Humidity Pressure Rain* Wind** Luminosity Snow
1788468258 36.67° C 45% 1012.5 hPa 0 mm - 155 W/m² -
1788467619 36.67° C 43% 1012.7 hPa 0 mm - 828 W/m² -
1788467073 36.67° C 44% 1012.9 hPa 0 mm - 814 W/m² -
1788465810 36.11° C 46% 1013.1 hPa 0 mm - 821 W/m² -
1788465217 36.11° C 45% 1013.2 hPa 0 mm - 823 W/m² -
1788464048 35.56° C 47% 1013.4 hPa 0 mm - 851 W/m² -
1788463453 35.56° C 47% 1013.6 hPa 0 mm - 861 W/m² -
1788460411 34.44° C 52% 1014.7 hPa 0 mm - 817 W/m² -
1788459843 34.44° C 52% 1014.8 hPa 0 mm - 884 W/m² -
1788459224 33.89° C 54% 1014.9 hPa 0 mm - 898 W/m² -
1788458659 33.89° C 54% 1015.1 hPa 0 mm - 877 W/m² -
1788458011 33.33° C 55% 1015.1 hPa 0 mm - 870 W/m² -
1788457431 32.78° C 58% 1015.3 hPa 0 mm - 854 W/m² -
1788456803 32.22° C 60% 1015.4 hPa 0 mm - 853 W/m² -
1788456210 32.22° C 60% 1015.5 hPa 0 mm - 561 W/m² -
1788455639 32.22° C 62% 1015.8 hPa 0 mm - 677 W/m² -
1788455009 32.22° C 61% 1015.8 hPa 0 mm - 844 W/m² -
1788454446 31.67° C 64% 1015.9 hPa 0 mm - 826 W/m² -
1788453814 31.11° C 66% 1015.9 hPa 0 mm - 759 W/m² -
1788452022 30.56° C 67% 1016.1 hPa 0 mm - 383 W/m² -
1788451429 30.56° C 68% 1016 hPa 0 mm - 396 W/m² -
1788450861 30.56° C 69% 1016 hPa 0 mm - 629 W/m² -
1788450233 30° C 70% 1016 hPa 0 mm - 700 W/m² -
1788449654 29.44° C 72% 1016 hPa 0 mm - 295 W/m² -
1788449062 29.44° C 73% 1015.9 hPa 0 mm - 570 W/m² -

* Rain latest hour (hover to see other rain measurements)
** Current wind speed in m/s (hover to see current wind gust speed)